When you browse on this site, cookies collect data to enhance your experience and personalize the content and advertising you see.
Visit our Privacy Policy to learn more. By continuing to use the site, you agree to this use of cookies and data.
  • In Austria
  • List of Countries
  • For 7 days
  • Water Temperature
  • Weather Map
  • News
  • Weather Widgets
  • user-avatar
    Login

    Hourly Weather Przemyśl

    Today, 2 April, Thursday

    Time Temperature Precipitation Wind Pressure Humidity
    00:00 -1°C° 0 mm 3 mps 744 mmHg 59%
    01:00 -1°C° 0 mm 3 mps 743 mmHg 57%
    02:00 -1°C° 0 mm 2 mps 743 mmHg 58%
    03:00 -1°C° 0 mm 2 mps 743 mmHg 57%
    04:00 -1°C° 0 mm 2 mps 743 mmHg 56%
    05:00 -2°C° 0 mm 3 mps 742 mmHg 55%
    06:00 0°C° 0 mm 3 mps 742 mmHg 52%
    07:00 0°C° 0 mm 4 mps 742 mmHg 49%
    08:00 +1°C° 0 mm 4 mps 743 mmHg 46%
    09:00 +4°C° 0 mm 4 mps 742 mmHg 43%
    10:00 +5°C° 0 mm 4 mps 742 mmHg 40%
    11:00 +7°C° 0 mm 5 mps 742 mmHg 37%
    12:00 +7°C° 0 mm 5 mps 741 mmHg 37%
    13:00 +8°C° 0 mm 5 mps 741 mmHg 38%
    14:00 +9°C° 0 mm 5 mps 741 mmHg 38%
    15:00 +8°C° 0 mm 5 mps 740 mmHg 40%
    16:00 +8°C° 0 mm 5 mps 740 mmHg 42%
    17:00 +8°C° 0 mm 4 mps 739 mmHg 43%
    18:00 +6°C° 0 mm 4 mps 739 mmHg 48%
    19:00 +5°C° 0 mm 4 mps 739 mmHg 54%
    20:00 +3°C° 0 mm 4 mps 739 mmHg 59%
    21:00 +3°C° 0 mm 4 mps 739 mmHg 58%
    22:00 +2°C° 0 mm 5 mps 739 mmHg 56%
    23:00 +1°C° 0 mm 5 mps 739 mmHg 55%

    Tomorrow, 3 April, Friday

    Time Temperature Precipitation Wind Pressure Humidity
    00:00 +1°C° 0 mm 5 mps 739 mmHg 55%
    01:00 +1°C° 0 mm 5 mps 739 mmHg 55%
    02:00 +1°C° 0 mm 5 mps 739 mmHg 54%
    03:00 +1°C° 0 mm 5 mps 739 mmHg 56%
    04:00 0°C° 0 mm 5 mps 738 mmHg 58%
    05:00 0°C° 0 mm 5 mps 738 mmHg 60%
    06:00 +1°C° 0 mm 5 mps 738 mmHg 60%
    07:00 +2°C° 0 mm 6 mps 738 mmHg 59%
    08:00 +3°C° 0 mm 6 mps 738 mmHg 58%
    09:00 +5°C° 0 mm 6 mps 738 mmHg 54%
    10:00 +7°C° 0 mm 6 mps 739 mmHg 50%
    11:00 +9°C° 0 mm 6 mps 739 mmHg 45%
    12:00 +9°C° 0 mm 6 mps 739 mmHg 46%
    13:00 +10°C° 0 mm 6 mps 739 mmHg 47%
    14:00 +10°C° 0 mm 6 mps 739 mmHg 48%
    15:00 +10°C° 0.1 mm 5 mps 739 mmHg 52%
    16:00 +9°C° 0.1 mm 5 mps 739 mmHg 55%
    17:00 +10°C° 0.1 mm 4 mps 740 mmHg 59%
    18:00 +8°C° 0 mm 4 mps 740 mmHg 66%
    19:00 +7°C° 0 mm 3 mps 741 mmHg 72%
    20:00 +6°C° 0 mm 2 mps 742 mmHg 79%
    21:00 +5°C° 0 mm 2 mps 742 mmHg 79%
    22:00 +5°C° 0 mm 2 mps 743 mmHg 78%
    23:00 +5°C° 0 mm 2 mps 743 mmHg 78%

    Day after tomorrow, 4 April, Saturday

    Time Temperature Precipitation Wind Pressure Humidity
    00:00 +4°C° 0 mm 2 mps 744 mmHg 80%
    01:00 +4°C° 0 mm 2 mps 744 mmHg 83%
    02:00 +3°C° 0 mm 2 mps 745 mmHg 85%
    03:00 +3°C° 0 mm 1 mps 745 mmHg 87%
    04:00 +3°C° 0 mm 1 mps 745 mmHg 88%
    05:00 +3°C° 0 mm 1 mps 746 mmHg 89%
    06:00 +4°C° 0 mm 1 mps 746 mmHg 85%
    07:00 +5°C° 0 mm 1 mps 747 mmHg 81%
    08:00 +6°C° 0 mm 1 mps 747 mmHg 76%
    09:00 +6°C° 0 mm 2 mps 748 mmHg 69%
    10:00 +7°C° 0 mm 3 mps 748 mmHg 61%
    11:00 +9°C° 0 mm 3 mps 749 mmHg 53%
    12:00 +9°C° 0.1 mm 3 mps 749 mmHg 52%
    13:00 +9°C° 0.1 mm 3 mps 749 mmHg 51%
    14:00 +10°C° 0.1 mm 4 mps 749 mmHg 50%
    15:00 +9°C° 0 mm 3 mps 750 mmHg 49%
    16:00 +9°C° 0 mm 3 mps 750 mmHg 49%
    17:00 +9°C° 0 mm 3 mps 750 mmHg 49%
    18:00 +7°C° 0 mm 3 mps 750 mmHg 53%
    19:00 +6°C° 0 mm 2 mps 751 mmHg 57%
    20:00 +6°C° 0 mm 1 mps 752 mmHg 61%
    21:00 +5°C° 0 mm 1 mps 752 mmHg 60%
    22:00 +4°C° 0 mm 1 mps 753 mmHg 60%
    23:00 +4°C° 0 mm 1 mps 754 mmHg 60%

    5 April, Sunday

    Time Temperature Precipitation Wind Pressure Humidity
    00:00 +3°C° 0 mm 1 mps 754 mmHg 61%
    01:00 +3°C° 0 mm 1 mps 754 mmHg 62%
    02:00 +2°C° 0 mm 1 mps 755 mmHg 64%
    03:00 +2°C° 0 mm 1 mps 755 mmHg 65%
    04:00 +1°C° 0 mm 1 mps 755 mmHg 67%
    05:00 +1°C° 0 mm 1 mps 755 mmHg 68%
    06:00 +1°C° 0 mm 2 mps 756 mmHg 66%
    07:00 +2°C° 0 mm 2 mps 756 mmHg 63%
    08:00 +2°C° 0 mm 3 mps 756 mmHg 60%
    09:00 +4°C° 0 mm 3 mps 756 mmHg 56%
    10:00 +5°C° 0 mm 4 mps 757 mmHg 51%
    11:00 +7°C° 0 mm 4 mps 757 mmHg 46%
    12:00 +8°C° 0 mm 4 mps 757 mmHg 45%
    13:00 +8°C° 0 mm 5 mps 756 mmHg 44%
    14:00 +9°C° 0 mm 5 mps 756 mmHg 42%
    15:00 +9°C° 0 mm 5 mps 756 mmHg 43%
    16:00 +9°C° 0 mm 5 mps 755 mmHg 44%
    17:00 +9°C° 0 mm 5 mps 755 mmHg 45%
    18:00 +7°C° 0 mm 4 mps 755 mmHg 50%
    19:00 +6°C° 0 mm 4 mps 755 mmHg 55%
    20:00 +4°C° 0 mm 3 mps 756 mmHg 60%
    21:00 +3°C° 0 mm 4 mps 756 mmHg 61%
    22:00 +3°C° 0 mm 4 mps 756 mmHg 62%
    23:00 +1°C° 0 mm 4 mps 756 mmHg 62%

    6 April, Monday

    Time Temperature Precipitation Wind Pressure Humidity
    00:00 +2°C° 0 mm 3 mps 756 mmHg 63%
    01:00 +2°C° 0 mm 3 mps 756 mmHg 64%
    02:00 +1°C° 0 mm 3 mps 756 mmHg 65%
    03:00 +1°C° 0 mm 3 mps 756 mmHg 66%
    04:00 +1°C° 0 mm 3 mps 756 mmHg 67%
    05:00 +1°C° 0 mm 2 mps 756 mmHg 67%
    06:00 +3°C° 0 mm 2 mps 756 mmHg 64%
    07:00 +4°C° 0 mm 2 mps 756 mmHg 61%
    08:00 +5°C° 0 mm 2 mps 756 mmHg 58%
    09:00 +8°C° 0 mm 2 mps 756 mmHg 51%
    10:00 +10°C° 0 mm 3 mps 756 mmHg 45%
    11:00 +12°C° 0 mm 3 mps 756 mmHg 39%
    12:00 +13°C° 0 mm 3 mps 756 mmHg 35%
    13:00 +14°C° 0 mm 3 mps 756 mmHg 32%
    14:00 +17°C° 0 mm 4 mps 756 mmHg 28%
    15:00 +16°C° 0 mm 3 mps 756 mmHg 31%
    16:00 +16°C° 0 mm 3 mps 755 mmHg 33%
    17:00 +16°C° 0 mm 3 mps 755 mmHg 36%
    18:00 +13°C° 0 mm 3 mps 755 mmHg 42%
    19:00 +10°C° 0 mm 3 mps 755 mmHg 47%
    20:00 +8°C° 0 mm 3 mps 755 mmHg 53%
    21:00 +7°C° 0 mm 3 mps 756 mmHg 54%
    22:00 +7°C° 0 mm 2 mps 756 mmHg 54%
    23:00 +6°C° 0 mm 2 mps 756 mmHg 55%

    7 April, Tuesday

    Time Temperature Precipitation Wind Pressure Humidity
    00:00 +5°C° 0 mm 2 mps 756 mmHg 56%
    01:00 +5°C° 0 mm 2 mps 756 mmHg 56%
    02:00 +5°C° 0 mm 2 mps 756 mmHg 56%
    03:00 +5°C° 0 mm 2 mps 756 mmHg 56%
    04:00 +4°C° 0 mm 2 mps 757 mmHg 56%
    05:00 +4°C° 0 mm 2 mps 757 mmHg 57%
    06:00 +5°C° 0 mm 2 mps 757 mmHg 54%
    07:00 +7°C° 0 mm 2 mps 757 mmHg 52%
    08:00 +8°C° 0 mm 2 mps 757 mmHg 50%
    09:00 +10°C° 0 mm 2 mps 757 mmHg 44%
    10:00 +13°C° 0 mm 2 mps 757 mmHg 39%
    11:00 +16°C° 0 mm 2 mps 757 mmHg 33%
    12:00 +17°C° 0 mm 2 mps 757 mmHg 31%
    13:00 +19°C° 0 mm 1 mps 757 mmHg 29%
    14:00 +20°C° 0 mm 1 mps 756 mmHg 27%
    15:00 +19°C° 0 mm 1 mps 756 mmHg 30%
    16:00 +18°C° 0 mm 2 mps 756 mmHg 32%
    17:00 +18°C° 0 mm 2 mps 756 mmHg 35%
    18:00 +15°C° 0 mm 1 mps 756 mmHg 41%
    19:00 +13°C° 0 mm 1 mps 756 mmHg 47%
    20:00 +11°C° 0 mm 1 mps 756 mmHg 52%
    21:00 +9°C° 0 mm 0 mps 756 mmHg 54%
    22:00 +9°C° 0 mm 0 mps 756 mmHg 56%
    23:00 +8°C° 0 mm 0 mps 756 mmHg 57%
    Show more